Weather History for Shelbyville, IN

Change the Weather History Date:

Thursday, August 29, 2013

  Actual Average Record
Temperature  
Mean Temperature 79 °F 71 °F  
Max Temperature 90 °F 83 °F 97 °F (2007)
Min Temperature 67 °F 59 °F 55 °F (2011)
Degree Days  
Heating Degree Days 0 0  
Month to date heating degree days 6 0  
Since 1 June heating degree days 13 16  
Since 1 July heating degree days 8 1  
Cooling Degree Days 14 6  
Month to date cooling degree days 226 219  
Year to date cooling degree days 952 792  
Since 1 June cooling degree days 784 711  
Growing Degree Days 30 (Base 50)    
Moisture  
Dew Point 69 °F    
Average Humidity 70    
Maximum Humidity 93    
Minimum Humidity 47    
Precipitation  
Precipitation 0.00 in 0.13 in 0.44 in (2003)
Month to date precipitation 2.44 3.12  
Year to date precipitation 20.58 30.01  
Sea Level Pressure  
Sea Level Pressure 30.01 in    
Wind  
Wind Speed 5 mph (NE)    
Max Wind Speed 10 mph    
Max Gust Speed 20 mph    
Visibility 7 miles    
Events      
T = Trace of Precipitation, MM = Missing Value Source: NWS Daily Summary

Daily Weather History Graph

Daily Weather History Graph

Search for Another Location

Airport:

Trip Planner

Search our weather history database for the weather conditions in past years. The results will help you decide how hot, cold, wet, or windy it might be!

Date:

Astronomy

Aug. 29, 2013 Rise Set
Actual Time 7:08 AM EDT 8:18 PM EDT
Civil Twilight 6:41 AM EDT 8:46 PM EDT
Nautical Twilight 6:07 AM EDT 9:19 PM EDT
Astronomical Twilight 5:33 AM EDT 9:53 PM EDT
Moon 1:00 AM EDT (8/29) 3:46 PM EDT (8/29)
Length of Visible Light 14h 05m
Length of Day
13h 09m
Last Quarter, 38% of the Moon is Illuminated
Aug 29
Last Quarter
Sep 5
New
Sep 12
First Quarter
Sep 19
Full
Sep 26
Last Quarter

Hourly Weather History & Observations

Time (EDT) Temp. Heat Index Dew Point Humidity Pressure Visibility Wind Dir Wind Speed Gust Speed Precip Events Conditions
12:53 AM 73.9 °F - 72.0 °F 93% 29.97 in 7.0 mi North 5.8 mph - N/A   Clear
1:53 AM 73.9 °F - 71.1 °F 91% 29.97 in 5.0 mi North 3.5 mph - N/A   Clear
2:53 AM 72.0 °F - 69.1 °F 91% 29.97 in 3.0 mi North 4.6 mph - N/A   Clear
3:53 AM 72.0 °F - 69.1 °F 91% 29.98 in 3.0 mi North 4.6 mph - N/A   Partly Cloudy
4:53 AM 73.0 °F - 70.0 °F 90% 29.98 in 4.0 mi NE 4.6 mph - N/A   Scattered Clouds
5:53 AM 73.0 °F - 70.0 °F 90% 29.98 in 4.0 mi ENE 3.5 mph - N/A   Mostly Cloudy
6:53 AM 72.0 °F - 69.1 °F 91% 29.99 in 3.0 mi NE 3.5 mph - N/A   Clear
7:11 AM 69.8 °F - 68.0 °F 94% 30.02 in 1.8 mi NE 3.5 mph - N/A   Scattered Clouds
7:51 AM 73.4 °F - 69.8 °F 88% 30.04 in 2.0 mi NE 4.6 mph - N/A   Clear
7:53 AM 73.0 °F - 69.1 °F 87% 30.02 in 2.0 mi NE 3.5 mph - N/A   Clear
8:51 AM 75.2 °F - 71.6 °F 89% 30.05 in 3.0 mi NE 4.6 mph - N/A   Haze
8:53 AM 75.9 °F - 71.1 °F 85% 30.03 in 3.0 mi NE 5.8 mph - N/A   Haze
9:45 AM 78.8 °F - 71.6 °F 78% 30.05 in 4.0 mi ENE 8.1 mph - N/A   Haze
9:53 AM 78.1 °F - 72.0 °F 81% 30.04 in 5.0 mi East 5.8 mph - N/A   Haze
10:53 AM 81.0 °F 84.9 °F 71.1 °F 72% 30.04 in 10.0 mi NE 5.8 mph - N/A   Clear
11:53 AM 84.0 °F 88.4 °F 70.0 °F 63% 30.04 in 10.0 mi NE 8.1 mph - N/A   Clear
12:53 PM 84.9 °F 88.2 °F 68.0 °F 57% 30.04 in 10.0 mi ENE 5.8 mph - N/A   Clear
1:53 PM 86.0 °F 89.4 °F 68.0 °F 55% 30.03 in 10.0 mi East 9.2 mph - N/A   Scattered Clouds
2:53 PM 84.9 °F 88.8 °F 69.1 °F 59% 30.02 in 10.0 mi East 5.8 mph - N/A   Mostly Cloudy
3:53 PM 90.0 °F 92.4 °F 66.0 °F 45% 30.00 in 10.0 mi NE 4.6 mph - N/A   Partly Cloudy
4:53 PM 87.1 °F 89.2 °F 66.0 °F 49% 29.99 in 10.0 mi NE 4.6 mph - N/A   Partly Cloudy
5:53 PM 89.1 °F 92.9 °F 68.0 °F 50% 29.98 in 10.0 mi ENE 3.5 mph - N/A   Clear
6:53 PM 84.9 °F 88.2 °F 68.0 °F 57% 29.98 in 10.0 mi East 5.8 mph - N/A   Clear
7:53 PM 81.0 °F 84.1 °F 69.1 °F 67% 29.98 in 10.0 mi East 5.8 mph - N/A   Clear
8:53 PM 75.0 °F - 68.0 °F 79% 29.99 in 10.0 mi East 5.8 mph - N/A   Clear
9:53 PM 72.0 °F - 66.9 °F 84% 30.01 in 10.0 mi ENE 4.6 mph - N/A   Clear
10:53 PM 71.1 °F - 66.0 °F 84% 30.00 in 10.0 mi East 3.5 mph - N/A   Clear
11:53 PM 70.0 °F - 64.9 °F 84% 29.99 in 9.0 mi East 4.6 mph - N/A   Clear